Overview Statistics Trail Chart Weather Telemetry Raw packets
 

This is the latest recevied weather packets stored in our database for station/object IU5JAE-13. If no packets are shown the sender has not sent any weather packets the latest 10 day(s).

<< 24 25 26 27 28 29 30 >>
Time Temp. Humidity Pressure Rain* Wind** Luminosity Snow
1788342930 26.11° C 65% 1021.3 hPa 0 mm - 537 W/m² -
1788342327 26.11° C 65% 1021.2 hPa 0 mm - 532 W/m² -
1788341725 26.11° C 65% 1021.1 hPa 0 mm - 527 W/m² -
1788341123 25° C 66% 1021.2 hPa 0 mm - 517 W/m² -
1788340520 25.56° C 66% 1021 hPa 0 mm - 500 W/m² -
1788339918 25° C 67% 1021 hPa 0 mm - 479 W/m² -
1788339315 24.44° C 70% 1021.1 hPa 0 mm - 461 W/m² -
1788338733 25° C 69% 1020.9 hPa 0 mm - 443 W/m² -
1788338131 25.56° C 69% 1020.9 hPa 0 mm - 426 W/m² -
1788337529 25° C 72% 1020.7 hPa 0 mm - 407 W/m² -
1788336926 23.89° C 73% 1020.7 hPa 0 mm - 384 W/m² -
1788336323 23.33° C 75% 1020.6 hPa 0 mm - 360 W/m² -
1788335721 23.89° C 75% 1020.7 hPa 0 mm - 336 W/m² -
1788335119 23.89° C 73% 1020.6 hPa 0 mm - 312 W/m² -
1788334516 23.89° C 75% 1020.6 hPa 0 mm - 287 W/m² -
1788333934 23.33° C 75% 1020.7 hPa 0 mm - 262 W/m² -
1788333331 23.33° C 74% 1020.5 hPa 0 mm - 233 W/m² -
1788332729 23.33° C 76% 1020.4 hPa 0 mm - 209 W/m² -
1788332127 22.22° C 78% 1020.2 hPa 0 mm - 174 W/m² -
1788331525 22.22° C 79% 1020.2 hPa 0 mm - 114 W/m² -
1788330922 22.22° C 78% 1020.2 hPa 0 mm - 102 W/m² -
1788330319 21.67° C 81% 1020.3 hPa 0 mm - 84 W/m² -
1788329717 22.22° C 78% 1020.4 hPa 0 mm - 49 W/m² -
1788329149 21.11° C 81% 1020.4 hPa 0 mm - 64 W/m² -
1788328532 20.56° C 82% 1020.4 hPa 0 mm - 58 W/m² -

* Rain latest hour (hover to see other rain measurements)
** Current wind speed in m/s (hover to see current wind gust speed)